Hourly Data Report for March 17, 2004

SHERBROOKE A
QUEBEC

45°26'00.000" N
71°41'00.000" W
241.40 m
7028124
71610
YSC

Download Data

Hourly Data (March 2004)
Hourly Data Report for March 17, 2004
TIME
LST
Temp Definition
°C
Dew Point Definition
°C
Rel Hum Definition
%
Precip. Amount Definition
mm

Wind Dir Definition
10's deg

Wind Spd Definition
km/h
Visibility Definition
km
Stn Press Definition
kPa
Hmdx Definition


Wind Chill Definition


Weather Definition


00:00 -9.6 -19.2 45   4 13 15.0 98.98   -16  
01:00 -9.5 -20.4 41   4 15 15.0 98.91   -16  
02:00 -9.9 -20.9 40   3 15 15.0 98.89   -17  
03:00 -10.4 -21.2 41   4 15 15.0 98.90   -17 Snow
04:00 -10.7 -20.5 44   3 15 15.0 98.95   -18 Snow
05:00 -10.9 -20.4 45   4 13 15.0 98.98   -17  
06:00 -11.0 -20.7 45   5 11 15.0 99.03   -17  
07:00 -10.8 -20.4 45   5 11 15.0 99.01   -17  
08:00 -10.2 -21.5 39   6 19 24.1 98.99   -18 Mostly Cloudy
09:00 -8.9 -20.9 37   6 19 24.1 99.02   -16 Mainly Clear
10:00 -7.6 -20.7 34   6 19 24.1 99.02   -15 Mainly Clear
11:00 -5.9 -19.6 33   7 19 24.1 98.98   -13 Mainly Clear
12:00 -4.6 -19.1 31   4 13 24.1 98.92   -10 Mainly Clear
13:00 -3.9 -18.4 31   2 15 24.1 98.83   -9 Mainly Clear
14:00 -2.7 -18.1 29   5 13 24.1 98.75   -7 Mainly Clear
15:00 -2.0 -17.8 29   4 13 24.1 98.71   -6 Clear
16:00 -2.0 -18.5 27   4 15 24.1 98.71   -7 Clear
17:00 -2.3 -18.9 27   4 17 24.1 98.74   -8 Mainly Clear
18:00 -3.7 -17.9 32   4 11 15.0 98.78   -8  
19:00 -4.8 -17.7 36   5 13 15.0 98.83   -10  
20:00 -6.5 -16.2 46   4 17 15.0 98.86   -13  
21:00 -7.9 -15.5 54   5 13 15.0 98.92   -14  
22:00 -8.7 -15.5 58   5 11 15.0 98.92   -14  
23:00 -9.6 -16.1 59   5 11 15.0 98.92   -15  

Notes on Data Quality.

Legend

  • E = Estimated
  • M = Missing
  • NA = Not Available*
  • [empty] = Indicates an unobserved value
Date modified: